Simultaneous Nadir Overpasses (SNOs) Predictions

Prediction of SNOs between AURA and NPP Satellite Orbit:

Table of predicted SNOs for the next 14.0 days since TLE Epoch: 2/11/2017
Index Date (AURA) Time (AURA) Lat,Lon (AURA) SZA (AURA ) Date (NPP) Time (NPP) Lat,Lon (NPP) SZA (NPP ) Distance(km) Time Diff (sec)
1 02/12/2017 11:24:58 79.66, -93.15 106.08 02/12/2017 11:24:43 79.66, -93.11 106.09 0.80 15
2 02/12/2017 12:14:19 -79.88, 76.18 74.27 02/12/2017 12:15:21 -79.89, 76.25 74.33 1.36 62
3 02/15/2017 02:52:07 -79.49,-146.12 74.56 02/15/2017 02:50:57 -79.50,-146.02 74.53 2.15 70
4 02/15/2017 03:41:27 79.71, 23.10 105.11 02/15/2017 03:41:35 79.71, 23.11 105.10 0.33 8
5 02/17/2017 19:08:34 -79.58, -29.63 75.61 02/17/2017 19:07:47 -79.59, -29.53 75.60 2.25 47
6 02/17/2017 19:57:54 79.79, 139.60 104.06 02/17/2017 19:58:25 79.79, 139.62 104.04 0.42 31
7 02/20/2017 11:25:01 -79.70, 87.11 76.74 02/20/2017 11:24:37 -79.70, 87.26 76.75 2.98 24
8 02/20/2017 12:14:22 79.87,-103.93 102.99 02/20/2017 12:15:16 79.87,-103.87 102.94 1.10 54
9 02/23/2017 03:41:32 -79.66,-157.26 77.66 02/23/2017 03:41:32 -79.66,-157.37 77.64 2.08 0




NCC Satellite Simultaneous Nadir Overpasses (SNOs) Prediction Service
